Other Surface Observations
Issued by NWS

Home | Current Version | Previous Version | Text Only | Print | Product List | Glossary On
Versions: 1 2 3 4 5 6 7 8 9 10 11 12 13 14 15 16 17 18 19 20 21 22 23 24 25 26 27 28 29 30 31 32 33 34 35 36 37 38 39 40 41 42 43 44 45 46 47 48 49 50
000
SXUS52 KTAE 301711
OSOTAE
OSOTAE
North Florida/South Alabama/Southwest Georgia Weather Roundup
National Weather Service Tallahassee Florida
100 PM EDT SUN AUG 30 2015

Note: "fair" indicates few or no clouds below 12,000 feet with no
significant weather and/or obstructions to visibility.

!FLZ017-115-028-034-025-301800
...North Florida...

CITY           SKY/WX    TMP DP  RH WIND       PRES   REMARKS
TALLAHASSEE    MOSUNNY   89  71  55 VRB5      30.05F HX  95
APALACHICOLA   MOSUNNY   85  73  67 VRB3      30.05F HX  91
PERRY          SUNNY     86  77  74 W6        30.04F HX  97
CROSS CITY       N/A     91  76  61 VRB3      30.02F HX 103
JACKSONVILLE   LGT RAIN  76  74  93 E7        30.04F FOG
$$

!FLZ112-006-005-002-011-301800
...Florida Panhandle...

CITY           SKY/WX    TMP DP  RH WIND       PRES   REMARKS
MARIANNA       MOSUNNY   84  71  65 CALM      30.08R
BONIFAY        FAIR      87  71  58 W3        30.08F HX  93
PANAMA CITY NW FAIR      88  69  53 NW7       30.06F HX  92
TYNDALL AFB    SUNNY     85  72  63 N6        30.06F HX  91
TYND DRONE APT FAIR      87  72  61 NW5       30.06F HX  93
DE FUNIAK SPR  FAIR      84  71  65 N8        30.09F
EGLIN AFB      MOSUNNY   89  66  45 N6        30.06F HX  91
DESTIN         SUNNY     90  68  48 VRB5      30.06F HX  94
HURLBURT       MOSUNNY   85  70  59 SW6       30.05F HX  90
CRESTVIEW      MOSUNNY   87  70  56 VRB3      30.09F HX  92
PENSACOLA      MOSUNNY   86  72  62 SE6       30.06F HX  92
$$

!ALZ063-066-301800
...South Alabama...

CITY           SKY/WX    TMP DP  RH WIND       PRES   REMARKS
DOTHAN         MOSUNNY   83  71  67 VRB7      30.12F
OZARK CAIRNS     N/A     84  69  59 NW8       30.08F
FT RUCKER HELI MOSUNNY   85  68  56 VRB3      30.08F
RUCKER HELI 3  FAIR      82  68  63 NW7       30.11F
RUCKER HELI 2  NOT AVBL
FLORALA APT    MOSUNNY   84  69  60 VRB5      30.10F
ANDALUSIA      MOSUNNY   88  70  55 CALM      30.09F HX  93
TROY           PTSUNNY   80  70  71 SW5       30.11S
EUFALA         FAIR      84  71  65 VRB3      30.08S
MOBILE         PTSUNNY   86  69  56 VRB6      30.08F HX  90
$$

!GAZ120>161-301800
...Southwest and South Central Georgia...

CITY           SKY/WX    TMP DP  RH WIND       PRES   REMARKS
THOMASVILLE    FAIR      84  70  61 CALM      30.07F
BAINBRIDGE     SUNNY     82  72  69 W6        30.08F
MOODY AFB      PTSUNNY   86  70  57 N5        30.04F HX  91
VALDOSTA       MOSUNNY   87  73  62 VRB3      30.05F HX  94
MOULTRIE       SUNNY     86  72  62 NW6       30.07F HX  92
BLAKELY        MOSUNNY   88  72  58 CALM      30.08F HX  94
ALBANY         PTSUNNY   84  72  67 CALM      30.10S
TIFTON         FAIR      86  66  51 W3        30.06F
FITZGERALD     PTSUNNY   86  71  60 CALM      30.09F HX  91
CORDELE        LGT RAIN  80  77  91 CALM      30.09F
AMERICUS       PTSUNNY   81  72  74 CALM      30.10F
HOMERVILLE     FAIR      88  73  62 CALM      30.06F HX  96
$$

!GMZ750-755-770-775-301800
...Coastal and Buoy Obs...

STATION/POSITION TIME  TEMP    WIND        PRES    VSBY  WAVE
                       AIR SEA DIR/SP/G                  HT/PER
                 (UTC) (F)     (DEG/KT/KT) (MB)    (MI)  (FT/S)
KEATON BEACH     1700   81     240/  3/  4 1017.3F
CEDAR KEY        1700   82     150/  3/  3 1017.1F
C TOWER          1700   83     120/  4/  4 1017.3F
APALACHICOLA BUO 1650   84 86   30/  2/  4 1016.7F         2/ 5
PANAMA CITY BUOY 1650   83 86   30/  8/ 10 1017.9R         1/ 4
MOBILE BUOY      1650   83 88   40/  4/  4 1018.3S         1/ 4
ORANGE BCH AL BU 1650   83 85   40/  4/  6 1017.6S         1/ 4
$$



USA.gov is the U.S. government's official web portal to all federal, state and local government web resources and services.